Location: Charlottesville
(38.0290°N, 78.4770°W)
Time: 07:25:57
(UTC-04:00)

Vanguard 2 Rocket - All Passes

Search period start: 21 July 2018 00:00
Search period end: 31 July 2018 00:00
Orbit: 554 x 3327 km, 32.9° (Epoch: 20 July)

Date Brightness Start Highest point End Pass type
(mag) Time Alt. Az. Time Alt. Az. Time Alt. Az.
21 Jul - 03:06:40 10° SW 03:11:37 40° SSE 03:19:34 10° E visible
21 Jul - 05:17:57 10° WSW 05:24:54 65° S 05:37:35 10° E visible
21 Jul - 07:30:20 10° W 07:39:48 54° SSW 07:55:53 10° SE daylight
21 Jul - 09:44:40 10° W 09:55:46 31° SSW 10:11:05 10° SSE daylight
22 Jul - 02:08:39 10° SSW 02:12:35 26° SSE 02:18:07 10° E visible
22 Jul - 04:19:14 10° WSW 04:25:08 60° S 04:35:32 10° E visible
22 Jul - 06:31:13 10° W 06:39:20 59° S 06:53:46 10° ESE daylight
22 Jul - 08:44:31 10° W 08:54:47 37° SSW 09:10:20 10° SSE daylight
22 Jul - 11:02:52 10° WSW 11:10:54 16° SW 11:20:15 10° S daylight
23 Jul - 01:11:20 10° S 01:13:45 14° SE 01:16:32 10° ESE visible
23 Jul - 03:20:43 10° WSW 03:25:41 49° SSE 03:33:55 10° E visible
23 Jul - 05:32:18 10° W 05:39:11 61° S 05:51:38 10° ESE visible
23 Jul - 07:44:55 10° W 07:54:03 43° SSW 08:08:59 10° SE daylight
23 Jul - 10:00:33 10° WSW 10:09:52 21° SSW 10:21:55 10° S daylight
24 Jul - 02:22:21 10° SW 02:26:32 36° SSE 02:32:44 10° E visible
24 Jul - 04:33:33 10° WSW 04:39:24 60° S 04:49:44 10° ESE visible
24 Jul - 06:45:42 10° W 06:53:37 48° SSW 07:07:16 10° SE daylight
24 Jul - 08:59:46 10° W 09:08:59 27° SSW 09:22:05 10° SSE daylight
25 Jul - 01:24:15 10° SSW 01:27:35 23° SSE 01:31:49 10° E visible
25 Jul - 03:34:56 10° WSW 03:39:54 55° S 03:48:12 10° E visible
25 Jul - 05:46:44 10° W 05:53:30 53° S 06:05:28 10° ESE daylight
25 Jul - 07:59:48 10° W 08:08:19 32° SSW 08:21:26 10° SSE daylight
25 Jul - 10:18:53 10° SW 10:24:06 13° SW 10:30:02 10° SSW daylight
26 Jul - 00:26:52 10° S 00:28:43 13° SSE 00:30:41 10° ESE night (unlit)
26 Jul - 02:36:23 10° WSW 02:40:40 45° SSE 02:47:08 10° E visible
26 Jul - 04:47:56 10° W 04:53:42 55° S 05:03:47 10° ESE visible
26 Jul - 07:00:22 10° W 07:07:55 37° SSW 07:20:18 10° SE daylight
26 Jul - 09:16:06 10° WSW 09:23:16 17° SSW 09:32:26 10° S daylight
27 Jul - 01:37:56 10° SW 01:41:37 32° SSE 01:46:29 10° E visible
27 Jul - 03:49:15 10° WSW 03:54:11 55° S 04:02:24 10° ESE visible
27 Jul - 06:01:17 10° W 06:07:50 42° SSW 06:18:57 10° SE daylight
27 Jul - 08:15:19 10° WSW 08:22:39 22° SSW 08:32:55 10° SSE daylight
28 Jul - 00:39:40 10° SSW 00:42:41 21° SSE 00:46:07 10° ESE night (unlit)
28 Jul - 02:50:37 10° WSW 02:54:54 50° S 03:01:26 10° E visible
28 Jul - 05:02:24 10° W 05:08:02 46° S 05:17:36 10° ESE visible
28 Jul - 07:15:26 10° WSW 07:22:17 26° SSW 07:32:36 10° SSE daylight
28 Jul - 23:41:51 10° S 23:43:43 13° SSE 23:45:37 10° SE night (unlit)
29 Jul - 01:51:58 10° WSW 01:55:48 41° SSE 02:00:55 10° E visible
29 Jul - 04:03:39 10° W 04:08:31 49° S 04:16:27 10° ESE visible
29 Jul - 06:16:04 10° WSW 06:22:12 31° SSW 06:31:53 10° SE daylight
29 Jul - 08:32:40 10° SW 08:37:03 13° SSW 08:42:18 10° S daylight
30 Jul - 00:53:20 10° SW 00:56:49 30° SSE 01:00:49 10° E night (unlit)
30 Jul - 03:04:57 10° WSW 03:09:13 49° S 03:15:39 10° ESE visible
30 Jul - 05:17:02 10° W 05:22:24 35° SSW 05:31:02 10° SE visible
30 Jul - 07:31:26 10° WSW 07:36:43 17° SSW 07:43:40 10° S daylight
